#timestamp,LO_Frequency,Hit,StdDev 
1681466415.1,286046996.7,N
1681466416.0,286046996.7,N
1681466435.8,286046997.9,N
1681466455.7,286046999.2,N
1681466475.5,286046996.5,N
1681466495.3,286046999.1,N
1681466515.2,286046996.5,N
1681466535.0,286046999.2,N
1681466535.9,286046999.2,N
1681466555.7,286046999.5,N
1681466575.6,286046996.5,N
1681466595.4,286046996.5,N
1681466615.3,286046996.8,N
1681466635.1,286046996.9,N
1681466655.8,286046997.1,N
1681466675.7,286046997.4,N
1681466695.5,286046997.1,N
1681466715.4,286046996.6,N
1681466735.2,286046999.5,N
1681466755.0,286046998.9,N
1681466755.9,286046998.9,N
1681466775.8,286047001.2,N
1681466795.6,286046998.3,N
1681466815.4,286046998.6,N
1681466835.3,286046998.1,N
1681466855.1,286046998.8,N
1681466875.9,286046996.6,N
1681466895.7,286046999.4,N
1681466915.5,286046996.6,N
1681466935.4,286046996.9,N
1681466955.2,286046997.2,N
1681466975.0,286046996.7,N
1681466975.9,286046996.7,N
1681466995.8,286046996.6,N
1681467015.6,286046999.6,N
1681467035.5,286046998.6,N
1681467055.3,286046998.3,N
1681467075.1,286046999.0,N
1681467095.9,286046999.0,N
1681467115.7,286046996.7,N
1681467135.6,286046999.1,N
1681467155.4,286046998.8,N
1681467175.2,286047000.7,N
1681467195.1,286046999.0,N
1681467196.0,286046999.0,N
1681467215.8,286046999.6,N
1681467235.6,286046996.9,N
1681467255.5,286046999.1,N
1681467275.3,286046998.2,N
1681467295.2,286046998.4,N
1681467315.9,286046998.7,N
1681467335.7,286046998.6,N
1681467355.6,286046998.6,N
1681467375.4,286046998.7,N
1681467395.2,286046999.1,N
1681467415.1,286047001.2,N
1681467416.0,286047001.2,N
1681467435.8,286046998.4,N
1681467455.7,286046998.5,N
1681467475.5,286046998.2,N
1681467495.3,286046998.5,N
1681467515.2,286046998.4,N
1681467535.0,286046998.2,N
1681467535.9,286046998.2,N
1681467555.7,286047001.1,N
1681467575.6,286047000.8,N
1681467595.4,286047000.6,N
1681467615.3,286046998.3,N
1681467635.1,286046998.8,N
1681467636.0,286046998.8,N
1681467655.8,286046997.0,N
1681467675.7,286046999.2,N
1681467695.5,286046998.1,N
1681467715.4,286046998.8,N
1681467735.2,286046996.5,Y
1681467755.0,286046998.6,P
1681467755.9,286046998.6,P
1681467775.8,286047000.7,P
1681467795.6,286047000.8,N
1681467815.4,286047001.1,N
1681467835.3,286047000.6,N
1681467855.1,286047000.7,N
1681467875.9,286047000.0,N
1681467895.7,286047000.3,N
1681467915.5,286047000.1,N
1681467935.4,286046999.8,N
1681467955.2,286047002.3,N
1681467975.0,286047002.6,N
1681467975.9,286047002.6,N
1681467995.8,286047002.7,N
1681468015.6,286047001.8,N
1681468035.5,286047002.6,N
1681468055.3,286047001.8,N
1681468075.1,286047002.3,N
1681468095.9,286047000.4,N
1681468115.7,286047000.3,N
1681468135.6,286046998.7,N
1681468155.4,286046998.2,N
1681468175.2,286046998.2,N
1681468195.1,286047000.8,N
1681468196.0,286047000.8,N
1681468215.8,286047000.0,N
1681468235.6,286047002.8,N
1681468255.5,286047002.3,N
1681468275.3,286047002.4,N
1681468295.2,286047002.4,N
1681468315.9,286047002.3,N
1681468335.7,286046999.8,N
1681468355.6,286046999.9,N
1681468375.4,286047002.6,N
1681468395.2,286047001.6,N
1681468415.1,286047000.2,N
1681468416.0,286047000.2,N
1681468435.8,286047002.2,N
1681468455.7,286047002.8,N
1681468475.5,286047002.8,N
1681468495.3,286047002.4,N
1681468515.2,286047002.6,N
1681468535.0,286047001.2,N
1681468535.9,286047001.2,N
1681468555.8,286046999.8,N
1681468575.6,286047002.3,N
1681468595.4,286047000.1,N
1681468615.3,286047000.7,N
1681468635.1,286047000.4,N
1681468655.8,286047000.0,N
1681468675.7,286046998.2,N
1681468695.5,286046998.6,N
1681468715.4,286047000.8,N
1681468735.2,286047002.3,N
1681468755.0,286047002.5,N
1681468755.9,286047002.5,N
1681468775.8,286047002.6,N
1681468795.6,286047002.4,N
1681468815.4,286047002.6,N
1681468835.3,286046999.7,N
1681468855.1,286047000.2,N
1681468875.9,286047000.2,N
1681468895.7,286047000.2,N
1681468915.5,286047000.0,N
1681468935.4,286047002.7,N
1681468955.2,286047003.7,N
1681468975.0,286047003.8,N
1681468975.9,286047003.8,N
1681468995.8,286047001.7,N
1681469015.6,286047000.1,N
1681469035.5,286047000.0,N
1681469055.3,286047002.6,N
1681469075.2,286047004.2,N
1681469095.9,286047001.6,N
1681469115.7,286047001.3,N
1681469135.6,286047002.0,N
1681469155.4,286047004.4,N
1681469175.2,286047003.1,N
1681469195.1,286047002.9,N
1681469196.0,286047002.9,N
1681469215.8,286047004.4,N
1681469235.7,286047002.3,N
1681469255.5,286047004.3,Y
1681469275.3,286047000.7,P
1681469295.2,286047000.6,N
1681469315.0,286047000.8,N
1681469315.9,286047000.8,N
1681469335.8,286047000.8,N
1681469355.6,286047000.7,N
1681469375.4,286047000.8,N
1681469395.3,286047000.8,N
1681469415.1,286047001.2,N
1681469435.8,286047000.7,N
1681469455.7,286046999.3,N
1681469475.5,286046998.8,N
1681469495.4,286046996.5,Y
1681469515.2,286046999.2,P
1681469535.0,286046999.5,N
1681469535.9,286046999.5,N
1681469555.8,286046999.2,N
1681469575.6,286046997.0,Y
1681469595.4,286046996.6,P
1681469615.3,286046998.2,N
1681469635.1,286047001.2,N
1681469655.9,286047001.2,N
1681469675.7,286047000.8,N
1681469695.5,286047000.7,N
1681469715.4,286046999.5,N
1681469735.2,286046999.5,N
1681469755.0,286046997.3,N
1681469756.0,286046997.3,N
1681469775.8,286046997.1,N
1681469795.6,286046997.1,N
1681469815.5,286046996.5,N
1681469835.3,286046999.3,N
1681469855.1,286046996.5,N
1681469875.9,286046997.4,N
1681469895.7,286046997.7,N
1681469915.6,286046997.7,N
1681469935.4,286046997.7,N
1681469955.2,286046997.2,N
1681469975.1,286046999.6,N
1681469976.0,286046999.6,N
1681469995.8,286046997.0,N
